[[{"header":{"parameterUnit":"m.s-1","parameterCategory":1,"la1":30.2991,"la2":30.254,"lo1":-89.0895,"lo2":-89.0444,"dy":0.0017,"dx":0.0017,"nx":28,"ny":28,"refTime":"2024-03-20T09:00:00:Z","depth":0,"parameterNumber":2,"parameterNumberName":"U-component_of_WINDS"},"data":[0,0,0,0,0,0,0,0,0,0,0,0,0,0,0,0,0,0,0,0,0,0,0,0,0,0,0,0,0,0,0,0,0,0,0,0,0,0,0,0,0,0,0,0,0,0,0,0,0,0,0,0,0,0,0,0,0,0,3.433,3.4331,0,3.4412,3.4412,3.4413,3.4383,3.4382,3.438,3.4378,3.446,3.4463,3.4467,0,0,0,0,0,0,0,0,0,0,0,0,0,3.4143,3.4146,3.433,3.4331,3.4332,3.4411,3.4413,3.4414,3.4384,3.4382,3.4379,3.4377,3.4458,3.4463,3.4468,0,0,0,0,0,0,0,0,0,0,0,0,0,3.4224,3.4148,3.4329,3.4326,3.4327,3.4411,3.4413,3.4414,3.4384,3.4381,3.4379,3.4376,3.4457,3.4463,3.4468,3.456,0,0,3.4486,3.4489,0,0,0,0,0,0,0,0,3.422,3.4231,3.4326,3.4327,3.4328,3.4384,3.4377,3.4463,3.4385,3.4362,3.4378,3.4375,3.4437,3.4444,3.4465,3.4564,3.4567,3.4487,3.449,3.4493,3.4494,0,0,0,0,0,0,0,3.4214,3.4227,3.4362,3.4327,3.4328,3.4319,3.4328,3.4393,3.4414,3.4364,3.4362,3.4372,3.4437,3.446,3.4467,3.4568,3.4486,3.4492,3.4495,3.4498,3.474,3.4743,0,0,0,0,0,0,3.4208,3.4223,3.4359,3.4364,3.4266,3.4325,3.4335,3.4369,3.4413,3.4417,3.4375,3.4371,3.4451,3.446,3.447,3.4576,3.4493,3.4498,3.4501,3.4737,3.4741,3.4744,0,0,0,0,0,0,3.4205,3.4221,3.4356,3.4293,3.431,3.4331,3.437,3.4372,3.4395,3.4421,3.4424,3.4395,3.4449,3.4462,3.4537,3.4578,3.4501,3.4506,3.4734,3.4739,3.4743,3.4791,0,0,0,0,0,0,3.4199,3.422,3.4256,3.4294,3.4313,3.4423,3.4373,3.4376,3.4406,3.4401,3.4441,3.4445,3.4448,3.4528,3.4542,3.4585,3.4511,3.473,3.4736,3.4741,3.4786,3.4797,3.4806,0,0,0,0,0,3.4193,3.4267,3.4258,3.4274,3.4359,3.4425,3.4436,3.4439,3.4409,3.4444,3.4461,3.4444,3.4572,3.4536,3.4552,3.4597,3.4728,3.4734,3.4741,3.4781,3.4795,3.4806,0,0,0,0,0,0,3.4233,3.4272,3.4262,3.4351,3.4385,3.442,3.4465,3.4454,3.4496,3.449,3.4492,3.4501,3.4577,3.4595,3.4554,3.4685,3.4645,3.4655,3.4671,3.4683,3.4693,3.4686,3.4515,0,0,0,0,0,3.4252,3.4304,3.4335,3.441,3.4428,3.4444,3.4473,3.4472,3.4507,3.4521,3.4543,3.4576,3.4624,3.4655,3.4701,3.4789,3.4795,3.4828,3.4838,3.4846,3.4854,3.4897,3.4911,3.4766,3.4766,3.4766,0,0,3.4292,3.432,3.4353,3.4419,3.4445,3.4496,3.4456,3.4513,3.455,3.4529,3.46,3.4618,3.4655,3.4736,3.4773,3.4753,3.4895,3.4855,3.4861,3.4864,3.4906,3.4919,3.4931,3.477,3.477,3.4769,0,0,3.439,3.4419,3.4482,3.4509,3.4549,3.4559,3.4574,3.461,3.4621,3.4692,3.4676,3.4721,3.4804,3.483,3.4854,3.4959,3.4944,3.4974,3.5026,3.5068,3.508,3.509,3.5123,3.5136,3.4983,3.4983,3.4983,0,3.4435,3.4513,3.4516,3.4574,3.4602,3.4585,3.4648,3.4674,3.4726,3.4745,3.4723,3.4824,3.4849,3.4933,3.4959,3.4981,3.4995,3.4968,3.5078,3.5088,3.5097,3.5129,3.5143,3.4986,3.4986,3.4985,3.4985,0,3.4563,3.4617,3.4664,3.4714,3.4748,3.4808,3.4818,3.4852,3.4848,3.4859,3.493,3.4959,3.5008,3.5029,3.5026,3.5112,3.5098,3.5078,3.5036,3.5114,3.5144,3.5157,3.499,3.4989,3.4988,3.4988,0,0,3.4688,3.4739,3.4755,3.4776,3.4818,3.4859,3.4918,3.4966,3.4992,3.5029,3.5075,3.5145,3.5125,3.5152,3.5152,3.519,3.5267,3.5164,3.5165,3.5179,3.5358,3.5371,3.5385,3.5258,3.526,3.5262,3.5354,0,3.4787,3.4889,3.4893,3.4985,3.5033,3.5017,3.5067,3.5097,3.5109,3.515,3.5163,3.521,3.5183,3.5198,3.5236,3.525,3.5302,3.5244,3.5298,3.53,3.5285,3.5402,3.5416,3.5501,3.5366,3.5368,3.5369,0,3.4916,3.4955,3.5052,3.5084,3.5104,3.5149,3.5191,3.5232,3.5265,3.527,3.53,3.5293,3.535,3.5309,3.5385,3.5345,3.5368,3.5378,3.5381,3.5383,3.5337,3.5403,3.5529,3.554,3.5389,3.5387,3.5386,0,3.4992,3.507,3.5137,3.5156,3.5196,3.5227,3.5245,3.5275,3.5303,3.534,3.5357,3.54,3.5423,3.5456,3.546,3.5431,3.5535,3.5496,3.5538,3.5538,3.5559,3.5557,3.5686,3.558,3.5579,3.5579,3.5579,0,3.5099,3.5158,3.5171,3.5212,3.5276,3.5279,3.5343,3.5358,3.5384,3.5426,3.5416,3.5455,3.5461,3.55,3.5505,3.5564,3.5576,3.558,3.5579,3.5579,3.5578,3.5591,3.5584,3.5583,3.5582,3.5581,3.5581,0,3.5194,3.5206,3.5277,3.5309,3.5318,3.5363,3.5389,3.5427,3.5438,3.549,3.5503,3.5519,3.5565,3.5573,3.5629,3.5631,3.5701,3.5697,3.569,3.5688,3.5729,3.5723,3.5868,3.5885,3.5771,3.5772,3.5773,0,3.526,3.5305,3.5341,3.5368,3.5387,3.5432,3.546,3.5464,3.5493,3.5532,3.5564,3.5609,3.5645,3.5719,3.5734,3.5775,3.5769,3.5817,3.5775,3.5772,3.5765,3.5761,3.5764,3.5824,3.5825,3.5827,3.5827,0,3.5375,3.5377,3.5418,3.546,3.5493,3.5526,3.5558,3.5581,3.5589,3.5621,3.5668,3.5696,3.5751,3.5794,3.5835,3.5851,3.5839,3.5841,3.5852,3.585,3.5842,3.5843,3.5707,3.5837,3.5836,3.5835,3.5835,3.5834,3.5454,3.5492,3.5522,3.5567,3.5591,3.5619,3.5655,3.567,3.5709,3.5754,3.5754,3.5805,3.5833,3.5886,3.5905,3.5943,3.5927,3.5945,3.5949,3.5952,3.5954,3.5839,3.5951,3.5951,3.595,3.595,3.595,0,3.5565,3.5583,3.5624,3.5668,3.5702,3.569,3.5723,3.5752,3.5796,3.5824,3.5859,3.5911,3.5953,3.5972,3.6012,3.6038,3.6034,3.6048,3.6045,3.6048,3.5967,3.5952,3.6051,3.6051,3.6051,3.6051,3.6051,3.6051,3.5626,3.5687,3.5693,3.5765,3.5783,3.5832,3.5852,3.5877,3.5899,3.5958,3.5992,3.6004,3.6027,3.6069,3.6105,3.6109,3.6123,3.6139,3.6141,3.6064,3.6054,3.6044,3.6029,3.6143,3.6143,3.6217,3.6218,3.6218]},{"header":{"parameterUnit":"m.s-1","parameterCategory":1,"la1":30.2991,"la2":30.254,"lo1":-89.0895,"lo2":-89.0444,"dy":0.0017,"dx":0.0017,"nx":28,"ny":28,"refTime":"2024-03-20T09:00:00:Z","depth":0,"parameterNumber":3,"parameterNumberName":"V-component_of_WINDS"},"data":[0,0,0,0,0,0,0,0,0,0,0,0,0,0,0,0,0,0,0,0,0,0,0,0,0,0,0,0,0,0,0,0,0,0,0,0,0,0,0,0,0,0,0,0,0,0,0,0,0,0,0,0,0,0,0,0,0,0,1.8209,1.8209,0,1.8254,1.8255,1.8256,1.8252,1.8251,1.825,1.8249,1.8294,1.8296,1.8298,0,0,0,0,0,0,0,0,0,0,0,0,0,1.8115,1.8117,1.8209,1.821,1.821,1.8254,1.8255,1.8256,1.8252,1.8251,1.825,1.8249,1.8293,1.8296,1.8298,0,0,0,0,0,0,0,0,0,0,0,0,0,1.8158,1.8118,1.8209,1.8213,1.8214,1.8254,1.8255,1.8256,1.8252,1.8251,1.825,1.8249,1.8293,1.8295,1.8298,1.8336,0,0,1.8307,1.8308,0,0,0,0,0,0,0,0,1.8155,1.8161,1.8212,1.8213,1.8214,1.8246,1.8238,1.8283,1.8252,1.8238,1.8249,1.8248,1.8279,1.8283,1.8293,1.8338,1.834,1.8307,1.8308,1.831,1.831,0,0,0,0,0,0,0,1.8153,1.8159,1.8227,1.8213,1.8214,1.8212,1.8217,1.8247,1.8263,1.8239,1.8239,1.8244,1.8279,1.8291,1.8294,1.834,1.8307,1.8309,1.8311,1.8312,1.8416,1.8417,0,0,0,0,0,0,1.8149,1.8157,1.8225,1.8228,1.8182,1.8215,1.822,1.8237,1.8263,1.8266,1.8245,1.8244,1.8287,1.8291,1.8296,1.8341,1.831,1.8312,1.8314,1.8415,1.8416,1.8417,0,0,0,0,0,0,1.8147,1.8155,1.8224,1.8193,1.8201,1.8217,1.8236,1.8238,1.825,1.8268,1.827,1.8254,1.8286,1.8292,1.8326,1.8342,1.8313,1.8316,1.8413,1.8415,1.8417,1.8431,0,0,0,0,0,0,1.8144,1.8154,1.817,1.8193,1.8203,1.8254,1.8237,1.824,1.8255,1.8254,1.8277,1.828,1.8286,1.8322,1.8328,1.8345,1.8318,1.8412,1.8414,1.8416,1.8429,1.8433,1.8436,0,0,0,0,0,1.8141,1.8172,1.8171,1.8179,1.8223,1.8255,1.826,1.8267,1.8257,1.8271,1.8282,1.8279,1.8339,1.8325,1.8333,1.8351,1.8411,1.8413,1.8416,1.8427,1.8432,1.8436,0,0,0,0,0,0,1.815,1.8175,1.8174,1.8214,1.8232,1.8254,1.8273,1.8272,1.8293,1.8291,1.8298,1.8303,1.8336,1.8347,1.8331,1.8387,1.8373,1.8378,1.8379,1.8384,1.8388,1.8384,1.832,0,0,0,0,0,1.8157,1.8182,1.8202,1.8235,1.8244,1.8257,1.8271,1.8275,1.8294,1.8301,1.8315,1.8333,1.8355,1.837,1.8392,1.843,1.8434,1.8446,1.845,1.8452,1.8456,1.8475,1.848,1.8425,1.8425,1.8425,0,0,1.8171,1.8188,1.8203,1.8237,1.8252,1.8276,1.8264,1.829,1.8308,1.8305,1.8337,1.8348,1.8368,1.8403,1.842,1.8413,1.8472,1.8456,1.8458,1.846,1.8478,1.8483,1.8488,1.8427,1.8427,1.8427,0,0,1.8209,1.8224,1.8253,1.8268,1.829,1.8298,1.8305,1.8326,1.8333,1.8366,1.8364,1.8384,1.8424,1.8438,1.845,1.8491,1.8488,1.8498,1.8516,1.8535,1.8539,1.8543,1.8556,1.8561,1.8501,1.8501,1.8501,0,1.8223,1.8261,1.8268,1.8294,1.8308,1.8307,1.8335,1.8349,1.8377,1.8386,1.8378,1.8427,1.844,1.8478,1.8488,1.8498,1.8505,1.8495,1.8538,1.8542,1.8545,1.8558,1.8563,1.8502,1.8502,1.8502,1.8502,0,1.8277,1.8302,1.8322,1.835,1.8366,1.8393,1.8403,1.8419,1.842,1.8428,1.846,1.8477,1.8501,1.851,1.8512,1.8548,1.8543,1.8537,1.8523,1.8552,1.8564,1.8569,1.8504,1.8503,1.8503,1.8503,0,0,1.8323,1.8352,1.8359,1.8371,1.8394,1.8414,1.844,1.8464,1.8477,1.8496,1.8517,1.8549,1.8543,1.8557,1.856,1.8577,1.8606,1.8568,1.8568,1.8574,1.8645,1.8649,1.8654,1.8604,1.8605,1.8606,1.8642,0,1.8362,1.8409,1.8415,1.8457,1.8479,1.8477,1.85,1.8516,1.8524,1.8544,1.8552,1.8575,1.8566,1.8574,1.859,1.8599,1.862,1.8597,1.8623,1.8624,1.8617,1.8661,1.8666,1.87,1.8647,1.8648,1.8649,0,1.8415,1.8435,1.8479,1.8497,1.8507,1.8527,1.8549,1.8568,1.8586,1.859,1.8605,1.8606,1.8631,1.8616,1.865,1.8634,1.8645,1.8651,1.8652,1.8655,1.8638,1.8664,1.8711,1.8715,1.8657,1.8656,1.8655,0,1.8443,1.8481,1.8511,1.8521,1.8544,1.8558,1.8568,1.8585,1.8598,1.8617,1.8625,1.8647,1.8658,1.8674,1.8679,1.8668,1.8713,1.8699,1.8716,1.8716,1.8725,1.8725,1.8774,1.8734,1.8733,1.8733,1.8733,0,1.8486,1.8512,1.8524,1.8543,1.8571,1.8577,1.8605,1.8615,1.8629,1.8648,1.8648,1.8666,1.8673,1.8691,1.8696,1.8723,1.8728,1.8731,1.8732,1.8731,1.8731,1.8738,1.8736,1.8735,1.8734,1.8734,1.8734,0,1.8522,1.8531,1.8564,1.8582,1.8587,1.8608,1.8623,1.8641,1.8648,1.8672,1.8678,1.869,1.8711,1.8719,1.8745,1.8748,1.8779,1.8778,1.8773,1.8773,1.879,1.8788,1.8845,1.8852,1.8808,1.8808,1.8809,0,1.8548,1.8569,1.8589,1.8602,1.8613,1.8634,1.8648,1.8654,1.8668,1.8688,1.8702,1.8724,1.8742,1.8777,1.8786,1.8806,1.8805,1.8824,1.8808,1.8806,1.8804,1.8803,1.8804,1.8827,1.8827,1.8828,1.8828,0,1.8594,1.8597,1.8618,1.8639,1.8655,1.8672,1.8688,1.8698,1.8706,1.8722,1.8744,1.8758,1.8784,1.8805,1.8825,1.8834,1.8832,1.8833,1.8838,1.8837,1.8832,1.8834,1.878,1.8831,1.8831,1.8831,1.8831,1.883,1.8626,1.8643,1.866,1.8682,1.8694,1.8709,1.8726,1.8735,1.8754,1.8776,1.8778,1.8802,1.8817,1.8843,1.8853,1.8871,1.8865,1.8873,1.8875,1.8876,1.8877,1.883,1.8875,1.8875,1.8874,1.8874,1.8874,0,1.8671,1.8681,1.8701,1.8724,1.874,1.8737,1.8754,1.8768,1.8789,1.8804,1.8821,1.8845,1.8865,1.8876,1.8896,1.8908,1.8907,1.8913,1.8911,1.8913,1.8881,1.8875,1.8913,1.8913,1.8913,1.8913,1.8913,1.8913,1.8696,1.8725,1.8729,1.8763,1.8773,1.8797,1.8807,1.882,1.8831,1.8859,1.8875,1.8883,1.8895,1.8915,1.8933,1.8935,1.8942,1.8948,1.895,1.892,1.8916,1.8912,1.8906,1.895,1.895,1.898,1.898,1.8981]}]]